Вернуться в каталог

MINOTAUR 1 R/B

АктивенVLEO
NORAD 48849·ROCKET BODY·🇺🇸 United States

Запущен Jun 15, 2021 с Wallops Flight Facility

Loading…

Ближайшие Пролёты (ближайшие 24 часа)

TLE

СвежийSource: Space-Track

Эпоха: Sep 14, 2026, 14:49 UTC

1 48849U 21052D   26257.61748904  .00000842  00000-0  91010-4 0  9993
2 48849  54.9880 116.9124 0009305 105.2437 254.9603 14.98542804189408

Отслеживайте MINOTAUR 1 R/B в реальном времени с AllMySat

Download on the App Store